RYR9MJ LEMH-EGCC

Flight info

Callsign RYR9MJ
Flight time 2h 15m
Altitude 36000
Route MEROS N853 LUMAS DCT SOFFY DCT MRM DCT MTL DCT ETREK DCT MADOT DCT MOPEM DCT CACHI DCT AVLON DCT OKRIX DCT BRY DCT CLM DCT KOPOR DCT VESAN DCT RATUK DCT SOVAT L613 SANDY UN57 WELIN T420 ELVOS
Aircraft B738/M-SDE2E3FGHIRWXY/LB1

Departure

Time 2026-05-08 05:03
Airport Menorca Airport (LEMH)

Arrival

Time 2026-05-08 07:19
Airport Manchester Airport (EGCC)
Time Latitude Longitude Altitude Speed Heading
2026-05-08 04:34 39.86425 4.22391 285 ft 0 kts 99°
2026-05-08 04:36 39.86425 4.22392 285 ft 0 kts 99°
2026-05-08 04:55 39.86428 4.22368 290 ft 4 kts 99°
2026-05-08 04:55 39.86431 4.22341 290 ft 4 kts 102°
2026-05-08 04:55 39.86440 4.22315 292 ft 4 kts 160°
2026-05-08 04:56 39.86462 4.22316 293 ft 4 kts 189°
2026-05-08 04:56 39.86470 4.22318 291 ft 1 kts 189°
2026-05-08 04:58 39.86467 4.22317 293 ft 2 kts 189°
2026-05-08 04:58 39.86441 4.22311 292 ft 6 kts 189°
2026-05-08 04:58 39.86378 4.22298 287 ft 12 kts 189°
2026-05-08 04:59 39.86280 4.22278 293 ft 17 kts 189°
2026-05-08 04:59 39.86204 4.22258 287 ft 10 kts 203°
2026-05-08 04:59 39.86188 4.22171 290 ft 12 kts 278°
2026-05-08 04:59 39.86158 4.22083 293 ft 12 kts 202°
2026-05-08 05:00 39.86064 4.22063 294 ft 15 kts 189°
2026-05-08 05:00 39.85948 4.22039 295 ft 18 kts 189°
2026-05-08 05:00 39.85807 4.22010 293 ft 23 kts 189°
2026-05-08 05:00 39.85642 4.21976 292 ft 22 kts 189°
2026-05-08 05:01 39.85471 4.21940 283 ft 27 kts 189°
2026-05-08 05:01 39.85318 4.21910 280 ft 22 kts 189°
2026-05-08 05:01 39.85186 4.21883 280 ft 14 kts 189°
2026-05-08 05:01 39.85127 4.21809 282 ft 14 kts 274°
2026-05-08 05:02 39.85139 4.21715 284 ft 5 kts 279°
2026-05-08 05:02 39.85145 4.21671 287 ft 5 kts 279°
2026-05-08 05:02 39.85163 4.21641 285 ft 5 kts 358°
2026-05-08 05:02 39.85199 4.21647 285 ft 5 kts
2026-05-08 05:03 39.85313 4.21670 284 ft 44 kts
2026-05-08 05:03 39.85862 4.21783 301 ft 113 kts
2026-05-08 05:03 39.86844 4.21981 362 ft 165 kts
2026-05-08 05:03 39.88006 4.22200 1024 ft 172 kts 12°
2026-05-08 05:04 39.89207 4.22456 1789 ft 182 kts 14°
2026-05-08 05:04 39.90560 4.22758 2116 ft 212 kts 13°
2026-05-08 05:04 39.92096 4.23095 2488 ft 232 kts 12°
2026-05-08 05:04 39.93723 4.23443 2997 ft 247 kts 12°
2026-05-08 05:05 39.95484 4.23820 3511 ft 264 kts 11°
2026-05-08 05:05 39.97320 4.24211 4347 ft 269 kts 11°
2026-05-08 05:05 39.99186 4.24607 5241 ft 274 kts 11°
2026-05-08 05:05 40.01070 4.25008 6181 ft 275 kts 11°
2026-05-08 05:06 40.02958 4.25436 7073 ft 276 kts 11°
2026-05-08 05:06 40.04866 4.25889 7861 ft 282 kts 11°
2026-05-08 05:06 40.06809 4.26355 8676 ft 286 kts 11°
2026-05-08 05:06 40.08780 4.26827 9497 ft 290 kts 11°
2026-05-08 05:07 40.10779 4.27306 10257 ft 296 kts 10°
2026-05-08 05:07 40.12853 4.27801 10527 ft 319 kts 10°
2026-05-08 05:07 40.15139 4.28346 10864 ft 337 kts 10°
2026-05-08 05:07 40.17470 4.28902 11546 ft 343 kts
2026-05-08 05:08 40.19825 4.29464 12358 ft 345 kts
2026-05-08 05:08 40.22164 4.30023 13172 ft 347 kts
2026-05-08 05:08 40.24552 4.30594 13944 ft 350 kts
2026-05-08 05:08 40.26965 4.31170 14589 ft 355 kts
2026-05-08 05:09 40.29419 4.31756 15203 ft 361 kts
2026-05-08 05:09 40.31904 4.32351 15829 ft 366 kts
2026-05-08 05:09 40.34421 4.32954 16468 ft 370 kts
2026-05-08 05:09 40.36971 4.33566 17093 ft 375 kts
2026-05-08 05:10 40.39552 4.34185 17713 ft 380 kts
2026-05-08 05:10 40.44816 4.35450 18848 ft 389 kts
2026-05-08 05:10 40.47487 4.36093 19459 ft 391 kts
2026-05-08 05:11 40.50168 4.36738 20066 ft 392 kts
2026-05-08 05:11 40.52862 4.37380 20634 ft 395 kts
2026-05-08 05:11 40.55582 4.38023 21186 ft 398 kts
2026-05-08 05:11 40.58325 4.38670 21728 ft 402 kts
2026-05-08 05:12 40.61083 4.39322 22274 ft 404 kts
2026-05-08 05:12 40.63863 4.39981 22812 ft 408 kts
2026-05-08 05:12 40.66667 4.40646 23331 ft 411 kts
2026-05-08 05:12 40.68534 4.41090 23649 ft 413 kts
2026-05-08 05:13 40.71372 4.41765 24068 ft 416 kts
2026-05-08 05:13 40.75156 4.42668 24663 ft 418 kts
2026-05-08 05:13 40.77090 4.43130 24971 ft 419 kts
2026-05-08 05:13 40.79970 4.43818 25407 ft 421 kts
2026-05-08 05:14 40.83799 4.44734 25993 ft 424 kts
2026-05-08 05:14 40.85761 4.45203 26286 ft 425 kts
2026-05-08 05:14 40.89619 4.46126 26841 ft 427 kts
2026-05-08 05:14 40.91600 4.46604 27117 ft 428 kts
2026-05-08 05:15 40.94537 4.47320 27514 ft 430 kts
2026-05-08 05:15 40.97479 4.48041 27936 ft 431 kts
2026-05-08 05:15 41.00436 4.48767 28335 ft 433 kts
2026-05-08 05:15 41.03405 4.49495 28735 ft 434 kts
2026-05-08 05:16 41.06340 4.50214 29120 ft 435 kts
2026-05-08 05:16 41.09325 4.50944 29498 ft 437 kts
2026-05-08 05:16 41.12314 4.51673 29861 ft 438 kts
2026-05-08 05:16 41.15322 4.52405 30184 ft 440 kts
2026-05-08 05:17 41.18339 4.53141 30451 ft 442 kts
2026-05-08 05:17 41.21374 4.53881 30686 ft 445 kts
2026-05-08 05:17 41.24424 4.54627 30914 ft 447 kts
2026-05-08 05:17 41.27491 4.55378 31154 ft 449 kts
2026-05-08 05:18 41.30568 4.56133 31453 ft 450 kts
2026-05-08 05:18 41.33644 4.56892 31819 ft 448 kts
2026-05-08 05:18 41.36708 4.57648 32172 ft 448 kts
2026-05-08 05:18 41.39771 4.58403 32470 ft 448 kts
2026-05-08 05:19 41.42838 4.59158 32757 ft 448 kts
2026-05-08 05:19 41.45902 4.59913 33084 ft 448 kts
2026-05-08 05:19 41.48961 4.60668 33429 ft 447 kts
2026-05-08 05:19 41.52020 4.61424 33751 ft 446 kts
2026-05-08 05:20 41.55072 4.62178 34035 ft 446 kts
2026-05-08 05:20 41.58123 4.62933 34282 ft 446 kts
2026-05-08 05:20 41.61179 4.63689 34489 ft 447 kts
2026-05-08 05:20 41.64241 4.64448 34703 ft 448 kts
2026-05-08 05:21 41.67310 4.65210 34932 ft 448 kts
2026-05-08 05:21 41.70371 4.65971 35173 ft 448 kts
2026-05-08 05:21 41.73436 4.66749 35384 ft 450 kts
2026-05-08 05:21 41.76497 4.67788 35563 ft 455 kts
2026-05-08 05:22 41.79543 4.68966 35784 ft 457 kts
2026-05-08 05:22 41.82582 4.70197 35999 ft 457 kts
2026-05-08 05:22 41.85644 4.71447 35992 ft 462 kts
2026-05-08 05:23 41.91810 4.73937 35999 ft 462 kts
2026-05-08 05:23 41.97936 4.76376 35996 ft 455 kts
2026-05-08 05:24 42.03955 4.78752 36016 ft 454 kts
2026-05-08 05:24 42.10018 4.81142 36017 ft 454 kts
2026-05-08 05:25 42.16075 4.83538 36015 ft 454 kts
2026-05-08 05:25 42.22145 4.85946 36014 ft 455 kts 10°
2026-05-08 05:26 42.28230 4.88365 36014 ft 456 kts 10°
2026-05-08 05:26 42.34322 4.90793 36010 ft 457 kts 10°
2026-05-08 05:27 42.40430 4.93231 36008 ft 458 kts 11°
2026-05-08 05:27 42.46546 4.95678 36006 ft 459 kts 11°
2026-05-08 05:28 42.52678 4.98137 36010 ft 460 kts 11°
2026-05-08 05:28 42.58824 5.00606 36005 ft 460 kts 11°
2026-05-08 05:29 42.64970 5.03081 36005 ft 461 kts 11°
2026-05-08 05:29 42.71120 5.05562 36005 ft 461 kts 11°
2026-05-08 05:30 42.77276 5.08051 36004 ft 461 kts 12°
2026-05-08 05:30 42.83428 5.10543 36004 ft 461 kts 12°
2026-05-08 05:31 42.89580 5.13040 35994 ft 461 kts 12°
2026-05-08 05:31 42.95731 5.15543 36008 ft 461 kts 12°
2026-05-08 05:32 43.01804 5.18018 36001 ft 461 kts 12°
2026-05-08 05:32 43.07955 5.20511 36000 ft 461 kts 12°
2026-05-08 05:33 43.14068 5.22981 36003 ft 461 kts 12°
2026-05-08 05:33 43.20151 5.25448 35997 ft 461 kts 12°
2026-05-08 05:34 43.26310 5.27953 35995 ft 462 kts 13°
2026-05-08 05:34 43.32478 5.30466 35996 ft 463 kts 13°
2026-05-08 05:34 43.35605 5.31380 35988 ft 457 kts
2026-05-08 05:35 43.38759 5.31466 36003 ft 451 kts 351°
2026-05-08 05:35 43.41850 5.30845 35992 ft 446 kts 340°
2026-05-08 05:35 43.44797 5.29588 36010 ft 443 kts 337°
2026-05-08 05:36 43.50649 5.26827 35997 ft 445 kts 336°
2026-05-08 05:36 43.56517 5.24061 35995 ft 446 kts 337°
2026-05-08 05:37 43.62414 5.21334 35995 ft 448 kts 337°
2026-05-08 05:37 43.68329 5.18621 36000 ft 448 kts 337°
2026-05-08 05:38 43.74255 5.15902 35995 ft 449 kts 337°
2026-05-08 05:38 43.80186 5.13175 36000 ft 449 kts 337°
2026-05-08 05:39 43.86121 5.10438 36019 ft 450 kts 337°
2026-05-08 05:39 43.92058 5.07694 36018 ft 450 kts 337°
2026-05-08 05:40 43.97957 5.04961 36024 ft 450 kts 337°
2026-05-08 05:40 44.03816 5.02242 36016 ft 450 kts 337°
2026-05-08 05:41 44.09745 4.99485 36022 ft 449 kts 337°
2026-05-08 05:41 44.15671 4.96722 36022 ft 449 kts 337°
2026-05-08 05:42 44.21592 4.93956 36021 ft 449 kts 337°
2026-05-08 05:42 44.27513 4.91185 36021 ft 449 kts 337°
2026-05-08 05:43 44.33427 4.88410 36017 ft 448 kts 337°
2026-05-08 05:43 44.39341 4.85629 36013 ft 448 kts 337°
2026-05-08 05:44 44.45254 4.82843 36016 ft 448 kts 337°
2026-05-08 05:44 44.51168 4.80051 36015 ft 449 kts 337°
2026-05-08 05:45 44.57150 4.77496 36001 ft 453 kts 345°
2026-05-08 05:45 44.63347 4.76102 36013 ft 455 kts 348°
2026-05-08 05:46 44.69613 4.74833 36009 ft 455 kts 348°
2026-05-08 05:46 44.75869 4.73499 36022 ft 455 kts 347°
2026-05-08 05:47 44.82123 4.72116 36019 ft 455 kts 347°
2026-05-08 05:47 44.88380 4.70719 36026 ft 456 kts 347°
2026-05-08 05:48 44.94652 4.69317 36020 ft 456 kts 347°
2026-05-08 05:48 45.00861 4.67929 36018 ft 457 kts 347°
2026-05-08 05:49 45.07142 4.66522 36025 ft 457 kts 347°
2026-05-08 05:49 45.13420 4.65112 36024 ft 457 kts 347°
2026-05-08 05:50 45.19701 4.63697 36023 ft 457 kts 347°
2026-05-08 05:50 45.25974 4.62266 36020 ft 456 kts 347°
2026-05-08 05:51 45.32236 4.60828 36026 ft 455 kts 347°
2026-05-08 05:51 45.38490 4.59389 36030 ft 455 kts 347°
2026-05-08 05:52 45.44726 4.57953 36040 ft 454 kts 347°
2026-05-08 05:52 45.50959 4.56514 36035 ft 453 kts 347°
2026-05-08 05:53 45.57140 4.55085 36039 ft 453 kts 347°
2026-05-08 05:53 45.63361 4.53642 36042 ft 452 kts 347°
2026-05-08 05:54 45.69570 4.52199 36034 ft 452 kts 347°
2026-05-08 05:54 45.75771 4.50756 36033 ft 451 kts 347°
2026-05-08 05:55 45.82016 4.49303 36030 ft 451 kts 348°
2026-05-08 05:55 45.88212 4.47858 36023 ft 451 kts 348°
2026-05-08 05:56 45.94409 4.46409 36026 ft 451 kts 348°
2026-05-08 05:56 46.00502 4.44981 36018 ft 452 kts 348°
2026-05-08 05:57 46.06707 4.43523 36024 ft 452 kts 348°
2026-05-08 05:57 46.12958 4.42051 36023 ft 452 kts 348°
2026-05-08 05:58 46.19129 4.40595 36024 ft 453 kts 348°
2026-05-08 05:58 46.25356 4.39122 36025 ft 453 kts 348°
2026-05-08 05:59 46.31549 4.37459 36028 ft 452 kts 344°
2026-05-08 05:59 46.37656 4.35298 36019 ft 451 kts 343°
2026-05-08 06:00 46.43741 4.33076 36025 ft 451 kts 343°
2026-05-08 06:00 46.49839 4.30899 36027 ft 451 kts 343°
2026-05-08 06:01 46.55942 4.28748 36022 ft 451 kts 343°
2026-05-08 06:01 46.61011 4.26964 36024 ft 451 kts 343°
2026-05-08 06:02 46.67107 4.24812 36033 ft 451 kts 343°
2026-05-08 06:02 46.73202 4.22654 36030 ft 451 kts 343°
2026-05-08 06:03 46.79295 4.20492 36035 ft 450 kts 343°
2026-05-08 06:03 46.85380 4.18327 36027 ft 450 kts 343°
2026-05-08 06:04 46.91467 4.16156 36036 ft 450 kts 343°
2026-05-08 06:04 46.97543 4.13984 36032 ft 449 kts 343°
2026-05-08 06:05 47.03550 4.11832 36034 ft 449 kts 343°
2026-05-08 06:05 47.09524 4.09252 36044 ft 446 kts 336°
2026-05-08 06:06 47.15264 4.05800 36028 ft 445 kts 334°
2026-05-08 06:06 47.20940 4.02310 36033 ft 445 kts 335°
2026-05-08 06:07 47.26682 3.98854 36027 ft 446 kts 335°
2026-05-08 06:07 47.32425 3.95431 36030 ft 446 kts 335°
2026-05-08 06:08 47.38177 3.91999 36053 ft 446 kts 335°
2026-05-08 06:08 47.43924 3.88559 36033 ft 446 kts 335°
2026-05-08 06:09 47.49677 3.85106 36038 ft 446 kts 335°
2026-05-08 06:09 47.54711 3.82078 36040 ft 447 kts 335°
2026-05-08 06:10 47.60479 3.78614 36036 ft 447 kts 335°
2026-05-08 06:10 47.66253 3.75153 36038 ft 448 kts 335°
2026-05-08 06:11 47.72021 3.71685 36043 ft 448 kts 335°
2026-05-08 06:11 47.77796 3.68202 36043 ft 448 kts 335°
2026-05-08 06:12 47.83569 3.64712 36040 ft 448 kts 335°
2026-05-08 06:12 47.89337 3.61215 36042 ft 448 kts 335°
2026-05-08 06:13 47.95103 3.57713 36044 ft 447 kts 335°
2026-05-08 06:13 48.00763 3.54256 36043 ft 447 kts 335°
2026-05-08 06:14 48.06512 3.50716 36043 ft 447 kts 335°
2026-05-08 06:14 48.12258 3.47170 36048 ft 447 kts 335°
2026-05-08 06:15 48.17999 3.43620 36048 ft 446 kts 335°
2026-05-08 06:15 48.23740 3.40063 36045 ft 446 kts 335°
2026-05-08 06:16 48.29436 3.36526 36032 ft 439 kts 334°
2026-05-08 06:16 48.35063 3.33021 36050 ft 437 kts 334°
2026-05-08 06:17 48.43436 3.27779 36048 ft 436 kts 334°
2026-05-08 06:17 48.49016 3.24221 36051 ft 435 kts 334°
2026-05-08 06:18 48.54595 3.20649 36050 ft 435 kts 334°
2026-05-08 06:18 48.60172 3.17076 36052 ft 436 kts 334°
2026-05-08 06:19 48.65759 3.13491 36055 ft 436 kts 334°
2026-05-08 06:19 48.71352 3.09894 36057 ft 437 kts 334°
2026-05-08 06:20 48.76952 3.06283 36060 ft 438 kts 334°
2026-05-08 06:20 48.82564 3.02656 36058 ft 438 kts 334°
2026-05-08 06:21 48.88018 2.98579 36066 ft 436 kts 327°
2026-05-08 06:21 48.90472 2.96418 36063 ft 436 kts 326°
2026-05-08 06:22 48.95632 2.91760 36062 ft 436 kts 326°
2026-05-08 06:22 49.00763 2.87175 36069 ft 437 kts 327°
2026-05-08 06:23 49.06019 2.82529 36071 ft 437 kts 327°
2026-05-08 06:23 49.11245 2.77919 36069 ft 436 kts 327°
2026-05-08 06:24 49.16499 2.73274 36072 ft 436 kts 327°
2026-05-08 06:24 49.21744 2.68624 36070 ft 435 kts 327°
2026-05-08 06:25 49.26982 2.63966 36068 ft 435 kts 327°
2026-05-08 06:25 49.32211 2.59306 36065 ft 434 kts 327°
2026-05-08 06:26 49.37435 2.54638 36072 ft 434 kts 327°
2026-05-08 06:26 49.42644 2.49972 36074 ft 433 kts 327°
2026-05-08 06:27 49.47845 2.45302 36074 ft 433 kts 327°
2026-05-08 06:27 49.53225 2.41120 36068 ft 436 kts 339°
2026-05-08 06:28 49.59053 2.38463 36074 ft 437 kts 341°
2026-05-08 06:28 49.64868 2.35939 36070 ft 437 kts 341°
2026-05-08 06:29 49.70712 2.33335 36080 ft 437 kts 341°
2026-05-08 06:29 49.76546 2.30683 36079 ft 437 kts 341°
2026-05-08 06:30 49.82383 2.28011 36074 ft 438 kts 341°
2026-05-08 06:30 49.88227 2.25329 36086 ft 438 kts 341°
2026-05-08 06:31 49.94079 2.22638 36080 ft 439 kts 341°
2026-05-08 06:31 49.99941 2.19936 36081 ft 439 kts 341°
2026-05-08 06:32 50.05741 2.17257 36078 ft 440 kts 341°
2026-05-08 06:32 50.11613 2.14536 36083 ft 440 kts 341°
2026-05-08 06:33 50.17488 2.11808 36083 ft 440 kts 341°
2026-05-08 06:33 50.23361 2.09073 36081 ft 440 kts 341°
2026-05-08 06:34 50.29226 2.06335 36087 ft 440 kts 341°
2026-05-08 06:34 50.35068 2.03488 36070 ft 438 kts 335°
2026-05-08 06:35 50.40224 1.98718 36076 ft 431 kts 317°
2026-05-08 06:35 50.44724 1.92523 36080 ft 430 kts 315°
2026-05-08 06:36 50.49203 1.86284 36068 ft 430 kts 316°
2026-05-08 06:36 50.53708 1.80086 36083 ft 430 kts 316°
2026-05-08 06:37 50.58218 1.73900 36071 ft 430 kts 316°
2026-05-08 06:37 50.62732 1.67695 36073 ft 430 kts 316°
2026-05-08 06:38 50.67237 1.61483 36082 ft 430 kts 316°
2026-05-08 06:38 50.71706 1.55299 36079 ft 430 kts 316°
2026-05-08 06:39 50.76205 1.49060 36084 ft 430 kts 316°
2026-05-08 06:39 50.80705 1.42806 36088 ft 430 kts 316°
2026-05-08 06:40 50.85200 1.36549 36091 ft 430 kts 316°
2026-05-08 06:40 50.89689 1.30282 36090 ft 430 kts 316°
2026-05-08 06:41 50.94177 1.24000 36100 ft 430 kts 316°
2026-05-08 06:41 50.98657 1.17712 36097 ft 430 kts 316°
2026-05-08 06:42 51.03076 1.11492 36100 ft 430 kts 316°
2026-05-08 06:42 51.07536 1.05167 36101 ft 430 kts 314°
2026-05-08 06:43 51.11836 0.98560 36105 ft 429 kts 313°
2026-05-08 06:43 51.16077 0.91874 36102 ft 429 kts 313°
2026-05-08 06:44 51.20309 0.85235 36102 ft 430 kts 313°
2026-05-08 06:44 51.24580 0.78559 36009 ft 430 kts 313°
2026-05-08 06:45 51.28850 0.71879 35998 ft 430 kts 313°
2026-05-08 06:45 51.33119 0.65182 35993 ft 430 kts 313°
2026-05-08 06:46 51.37385 0.58470 36100 ft 430 kts 313°
2026-05-08 06:46 51.41638 0.51759 36102 ft 429 kts 313°
2026-05-08 06:47 51.45884 0.45041 36103 ft 429 kts 313°
2026-05-08 06:47 51.50126 0.38311 36104 ft 428 kts 313°
2026-05-08 06:48 51.54356 0.31580 36099 ft 428 kts 313°
2026-05-08 06:48 51.58579 0.24841 36102 ft 427 kts 313°
2026-05-08 06:49 51.62791 0.18105 36100 ft 427 kts 313°
2026-05-08 06:49 51.66958 0.11381 36101 ft 426 kts 312°
2026-05-08 06:50 51.71107 0.04561 36099 ft 426 kts 312°
2026-05-08 06:50 51.75248 -0.02274 36098 ft 425 kts 312°
2026-05-08 06:51 51.79336 -0.09029 36095 ft 417 kts 312°
2026-05-08 06:51 51.82723 -0.14635 36098 ft 415 kts 312°
2026-05-08 06:52 51.84741 -0.17981 35792 ft 417 kts 312°
2026-05-08 06:52 51.86749 -0.21314 35502 ft 410 kts 312°
2026-05-08 06:52 51.88733 -0.24611 35106 ft 407 kts 312°
2026-05-08 06:52 51.90701 -0.27887 34737 ft 404 kts 312°
2026-05-08 06:53 51.92651 -0.31137 34366 ft 401 kts 312°
2026-05-08 06:53 51.94589 -0.34373 33974 ft 399 kts 312°
2026-05-08 06:53 51.96491 -0.37552 33532 ft 396 kts 312°
2026-05-08 06:53 51.98400 -0.40747 33128 ft 393 kts 312°
2026-05-08 06:54 52.00293 -0.43919 32741 ft 390 kts 312°
2026-05-08 06:54 52.02174 -0.47075 32371 ft 387 kts 312°
2026-05-08 06:54 52.04035 -0.50201 31997 ft 384 kts 311°
2026-05-08 06:54 52.05882 -0.53309 31631 ft 381 kts 311°
2026-05-08 06:55 52.07716 -0.56399 31274 ft 378 kts 311°
2026-05-08 06:55 52.09534 -0.59464 30919 ft 376 kts 311°
2026-05-08 06:55 52.11341 -0.62517 30567 ft 374 kts 311°
2026-05-08 06:55 52.13138 -0.65555 30216 ft 371 kts 311°
2026-05-08 06:56 52.14923 -0.68578 29818 ft 369 kts 311°
2026-05-08 06:56 52.16706 -0.71601 29432 ft 371 kts 311°
2026-05-08 06:56 52.18492 -0.74633 29065 ft 371 kts 311°
2026-05-08 06:56 52.20271 -0.77654 28686 ft 368 kts 311°
2026-05-08 06:57 52.22032 -0.80649 28321 ft 364 kts 311°
2026-05-08 06:57 52.23782 -0.83619 27962 ft 361 kts 313°
2026-05-08 06:57 52.25691 -0.86271 27577 ft 361 kts 324°
2026-05-08 06:57 52.27808 -0.88443 27248 ft 358 kts 327°
2026-05-08 06:58 52.29942 -0.90519 26874 ft 356 kts 327°
2026-05-08 06:58 52.32067 -0.92574 26529 ft 354 kts 327°
2026-05-08 06:58 52.34179 -0.94634 26181 ft 353 kts 327°
2026-05-08 06:58 52.36281 -0.96704 25833 ft 352 kts 327°
2026-05-08 06:59 52.38371 -0.98775 25487 ft 351 kts 326°
2026-05-08 06:59 52.40463 -1.00859 25140 ft 352 kts 326°
2026-05-08 06:59 52.42555 -1.02948 24793 ft 352 kts 326°
2026-05-08 06:59 52.44641 -1.05031 24413 ft 350 kts 326°
2026-05-08 07:00 52.46718 -1.07110 24070 ft 349 kts 326°
2026-05-08 07:00 52.48758 -1.09153 23727 ft 347 kts 326°
2026-05-08 07:00 52.50814 -1.11229 23316 ft 346 kts 326°
2026-05-08 07:00 52.52858 -1.13304 22936 ft 345 kts 326°
2026-05-08 07:01 52.54889 -1.15366 22564 ft 342 kts 326°
2026-05-08 07:01 52.56904 -1.17412 22207 ft 339 kts 326°
2026-05-08 07:01 52.58909 -1.19442 21861 ft 337 kts 326°
2026-05-08 07:01 52.60899 -1.21454 21522 ft 335 kts 326°
2026-05-08 07:02 52.62876 -1.23458 21191 ft 333 kts 326°
2026-05-08 07:02 52.64842 -1.25451 20856 ft 331 kts 326°
2026-05-08 07:02 52.66798 -1.27438 20520 ft 329 kts 325°
2026-05-08 07:02 52.68741 -1.29414 20201 ft 327 kts 325°
2026-05-08 07:03 52.70675 -1.31382 19853 ft 327 kts 325°
2026-05-08 07:03 52.72618 -1.33358 19471 ft 329 kts 325°
2026-05-08 07:03 52.74568 -1.35342 19147 ft 329 kts 325°
2026-05-08 07:03 52.76519 -1.37329 18772 ft 329 kts 325°
2026-05-08 07:04 52.78464 -1.39312 18353 ft 331 kts 325°
2026-05-08 07:04 52.80424 -1.41313 17920 ft 331 kts 325°
2026-05-08 07:04 52.82387 -1.43318 17492 ft 331 kts 325°
2026-05-08 07:04 52.84347 -1.45323 17081 ft 331 kts 325°
2026-05-08 07:05 52.86301 -1.47324 16679 ft 330 kts 325°
2026-05-08 07:05 52.88250 -1.49322 16286 ft 329 kts 326°
2026-05-08 07:05 52.90198 -1.51322 15898 ft 329 kts 326°
2026-05-08 07:05 52.92138 -1.53315 15501 ft 328 kts 326°
2026-05-08 07:06 52.94075 -1.55307 15124 ft 327 kts 326°
2026-05-08 07:06 52.95979 -1.57269 14740 ft 326 kts 326°
2026-05-08 07:06 52.97905 -1.59254 14367 ft 326 kts 326°
2026-05-08 07:06 52.99828 -1.61237 13975 ft 324 kts 326°
2026-05-08 07:07 53.01720 -1.63189 13549 ft 316 kts 326°
2026-05-08 07:07 53.03565 -1.65096 13131 ft 308 kts 326°
2026-05-08 07:07 53.05337 -1.66992 12780 ft 298 kts 319°
2026-05-08 07:07 53.06749 -1.69404 12461 ft 286 kts 307°
2026-05-08 07:08 53.08013 -1.71940 12104 ft 283 kts 307°
2026-05-08 07:08 53.09272 -1.74434 11770 ft 281 kts 308°
2026-05-08 07:08 53.10631 -1.76771 11434 ft 283 kts 323°
2026-05-08 07:08 53.12436 -1.78074 11103 ft 285 kts 345°
2026-05-08 07:09 53.14381 -1.78718 10778 ft 285 kts 348°
2026-05-08 07:09 53.16341 -1.79286 10436 ft 288 kts 348°
2026-05-08 07:09 53.18326 -1.79855 10094 ft 290 kts 348°
2026-05-08 07:09 53.20313 -1.80434 9724 ft 291 kts 348°
2026-05-08 07:10 53.22312 -1.81028 9342 ft 292 kts 348°
2026-05-08 07:10 53.24292 -1.81622 8976 ft 286 kts 348°
2026-05-08 07:10 53.26230 -1.82209 8627 ft 279 kts 348°
2026-05-08 07:10 53.28120 -1.82787 8303 ft 275 kts 348°
2026-05-08 07:11 53.30003 -1.83365 7980 ft 275 kts 348°
2026-05-08 07:11 53.31894 -1.83947 7652 ft 277 kts 348°
2026-05-08 07:11 53.33796 -1.84533 7313 ft 278 kts 348°
2026-05-08 07:11 53.35700 -1.85121 6989 ft 279 kts 348°
2026-05-08 07:12 53.37602 -1.85708 6644 ft 275 kts 349°
2026-05-08 07:12 53.39463 -1.86284 6299 ft 270 kts 349°
2026-05-08 07:12 53.41263 -1.86840 5963 ft 263 kts 348°
2026-05-08 07:12 53.42997 -1.87565 5683 ft 250 kts 332°
2026-05-08 07:13 53.44323 -1.89296 5368 ft 236 kts 308°
2026-05-08 07:13 53.45273 -1.91451 5103 ft 225 kts 302°
2026-05-08 07:13 53.46130 -1.93594 4828 ft 218 kts 301°
2026-05-08 07:13 53.46963 -1.95679 4559 ft 212 kts 301°
2026-05-08 07:14 53.47788 -1.97722 4310 ft 213 kts 301°
2026-05-08 07:14 53.48316 -1.99989 3978 ft 207 kts 265°
2026-05-08 07:14 53.47797 -2.02105 3788 ft 196 kts 228°
2026-05-08 07:14 53.46900 -2.03790 3644 ft 190 kts 227°
2026-05-08 07:15 53.46035 -2.05471 3397 ft 190 kts 228°
2026-05-08 07:15 53.45194 -2.07177 3153 ft 188 kts 229°
2026-05-08 07:15 53.44373 -2.08872 2904 ft 188 kts 230°
2026-05-08 07:15 53.43553 -2.10569 2656 ft 186 kts 229°
2026-05-08 07:16 53.42738 -2.12256 2409 ft 187 kts 229°
2026-05-08 07:16 53.41914 -2.13958 2126 ft 185 kts 229°
2026-05-08 07:16 53.41124 -2.15593 1889 ft 177 kts 229°
2026-05-08 07:16 53.40384 -2.17121 1631 ft 161 kts 229°
2026-05-08 07:17 53.39719 -2.18500 1445 ft 142 kts 229°
2026-05-08 07:17 53.39522 -2.18909 1385 ft 142 kts 229°
2026-05-08 07:17 53.38918 -2.20155 1174 ft 144 kts 230°
2026-05-08 07:18 53.38294 -2.21447 967 ft 141 kts 230°
2026-05-08 07:18 53.37679 -2.22721 779 ft 140 kts 230°
2026-05-08 07:18 53.37064 -2.23994 577 ft 140 kts 231°
2026-05-08 07:18 53.36452 -2.25260 374 ft 140 kts 231°
2026-05-08 07:19 53.35848 -2.26516 259 ft 133 kts 231°
2026-05-08 07:19 53.35330 -2.27590 235 ft 99 kts 231°
2026-05-08 07:19 53.35022 -2.28231 232 ft 42 kts 236°
2026-05-08 07:19 53.34950 -2.28562 233 ft 17 kts 260°
2026-05-08 07:20 53.34952 -2.28717 234 ft 13 kts 311°
2026-05-08 07:20 53.35030 -2.28713 233 ft 13 kts 43°
2026-05-08 07:20 53.35087 -2.28600 232 ft 13 kts 51°
2026-05-08 07:20 53.35141 -2.28488 232 ft 12 kts 51°
2026-05-08 07:21 53.35193 -2.28379 233 ft 12 kts 51°
2026-05-08 07:21 53.35244 -2.28273 232 ft 12 kts 50°
2026-05-08 07:21 53.35299 -2.28173 232 ft 12 kts 45°
2026-05-08 07:21 53.35369 -2.28062 232 ft 15 kts 44°
2026-05-08 07:22 53.35452 -2.27928 232 ft 18 kts 44°
2026-05-08 07:22 53.35549 -2.27771 232 ft 21 kts 44°
2026-05-08 07:22 53.35656 -2.27595 232 ft 23 kts 47°
2026-05-08 07:22 53.35751 -2.27400 234 ft 19 kts 51°
2026-05-08 07:23 53.35811 -2.27280 232 ft 10 kts 47°
2026-05-08 07:23 53.35814 -2.27178 234 ft 10 kts 131°
2026-05-08 07:23 53.35807 -2.27064 234 ft 12 kts 61°
2026-05-08 07:23 53.35853 -2.26936 234 ft 14 kts 54°
2026-05-08 07:24 53.35917 -2.26835 232 ft 11 kts 13°
2026-05-08 07:24 53.35993 -2.26816 233 ft 12 kts 44°
2026-05-08 07:24 53.36027 -2.26747 232 ft 7 kts 51°
2026-05-08 07:24 53.36048 -2.26727 232 ft 4 kts 344°
2026-05-08 07:25 53.36070 -2.26759 233 ft 5 kts 315°
2026-05-08 07:25 53.36083 -2.26782 232 ft 1 kts 314°
2026-05-08 07:25 53.36090 -2.26794 232 ft 0 kts 314°